BEIDOU 10 (C10)

Last updated on Dec. 12, 2019, 4:25 a.m. UTC

1 37948U 11073A   19345.35027205 -.00000153  00000-0  10000-3 0  9993
2 37948  51.8801 300.1443 0062884 214.1339 144.3991  1.00257033 29533
UTC
Height (km)
Latitude
Longitude
Inclination
Orbital Period
UTC large
Height (km)
Speed (km/s)
/
Latitude / Longitude
Inclination (degrees)
Orbital Period (minutes)
Azimuth
Elevation
Range (km)
Doppler Factor
iOS Compass Heading
iOS Angle

Next 30 passes for location: Hong Kong

Rise time Rise Azimuth (degrees) Set time Set Azimuth (degrees) Duration Max altitude (degrees)

No matching passes for this satellites